Location: Amsterdam
(30.7274°N, 84.4357°W)
Time: 20:38:55
(UTC+00:00)

Transit 2A Rocket - Pass Details

Date: 23 February 2026
Orbit: 583 x 900 km, 66.7° (Epoch: 8 March)

Event Time Altitude Azimuth Distance (km) Brightness Sun altitude
Rises 07:07:43 0° 311° (NW) 3,191 - -62.5°
Reaches altitude 10° 07:11:25 10° 285° (WNW) 2,184 - -61.9°
Maximum altitude 07:13:40 13° 258° (WSW) 1,927 - -61.6°
Drops below altitude 10° 07:15:51 10° 230° (SW) 2,086 - -61.3°
Sets 07:19:14 0° 202° (SSW) 2,926 - -60.7°
